GW0557 Weather Reports


Display with metric or nautical units.
time (UTC)temp
F
wind
direction
speed
MPH
gust
MPH
rain 1hr
in
rain 24hr
in
rain mn
in
humidity
%
barometer
mb
20260509074549 54 182 2.0 5.0 0.00 0.14 0.00 90 1006.6
20260509073056 54 181 2.0 5.0 0.00 0.14 0.00 90 1006.7
20260509071552 54 199 1.0 4.0 0.00 0.14 0.00 90 1007.0
20260509070057 54 0 1.0 4.0 0.00 0.14 0.00 90 1007.1
20260509064550 54 203 2.0 5.0 0.00 0.14 0.00 90 1007.4
20260509063059 54 225 3.0 6.0 0.00 0.14 0.00 90 1007.6
20260509061605 54 217 3.0 7.0 0.00 0.14 0.00 90 1007.7
20260509060053 54 182 3.0 6.0 0.00 0.14 0.00 90 1008.0
20260509054558 54 194 3.0 6.0 0.00 0.14 0.00 90 1008.3
20260509053058 54 211 3.0 6.0 0.00 0.14 0.00 90 1008.3
20260509051553 54 194 3.0 6.0 0.00 0.14 0.00 90 1008.2
20260509050052 54 205 3.0 5.0 0.00 0.14 0.00 90 1008.3
20260509044556 54 191 2.0 5.0 0.00 0.14 0.00 89 1008.5
20260509043059 54 186 2.0 4.0 0.00 0.14 0.00 89 1008.3
20260509041554 54 0 0.0 3.0 0.00 0.14 0.00 89 1008.4
20260509040058 54 221 2.0 3.0 0.00 0.14 0.00 89 1008.2
20260509034602 54 186 1.0 3.0 0.00 0.14 0.14 88 1008.3
20260509033056 54 198 1.0 3.0 0.00 0.14 0.14 87 1008.2
20260509031556 54 190 1.0 3.0 0.00 0.14 0.14 87 1008.2
20260509030056 55 0 1.0 3.0 0.00 0.14 0.14 87 1008.1
20260509024553 55 208 2.0 5.0 0.00 0.14 0.14 88 1008.1
20260509023055 54 207 1.0 5.0 0.00 0.14 0.14 88 1008.5
20260509021554 54 234 2.0 5.0 0.00 0.14 0.14 89 1008.2
20260509020054 54 223 2.0 6.0 0.00 0.14 0.14 89 1008.3
20260509014551 54 215 1.0 4.0 0.00 0.14 0.14 89 1008.3
20260509013052 54 187 1.0 3.0 0.00 0.14 0.14 89 1008.2
20260509011604 54 200 1.0 4.0 0.00 0.14 0.14 89 1008.2
20260509010054 54 189 2.0 5.0 0.00 0.14 0.14 90 1008.5
20260509004555 54 153 2.0 5.0 0.00 0.14 0.14 90 1008.3
20260509003058 54 204 2.0 6.0 0.00 0.14 0.14 90 1008.4
20260509001556 55 166 2.0 5.0 0.00 0.14 0.14 90 1008.5
20260508234556 55 177 2.0 5.0 0.01 0.14 0.14 90 1008.7
20260508233054 54 208 2.0 4.0 0.02 0.14 0.14 90 1008.8
20260508231633 54 199 2.0 5.0 0.04 0.14 0.14 91 1008.8
20260508230101 54 201 1.0 4.0 0.04 0.13 0.13 91 1008.7
20260508224559 54 191 1.0 5.0 0.04 0.12 0.12 90 1008.8
20260508223052 54 191 1.0 4.0 0.07 0.12 0.12 90 1008.9
20260508221553 54 206 2.0 4.0 0.08 0.10 0.10 90 1009.0
20260508220056 54 0 0.0 4.0 0.08 0.09 0.09 89 1009.1
20260508214626 54 208 0.0 3.0 0.08 0.08 0.08 88 1009.3
20260508213053 54 0 0.0 0.0 0.05 0.05 0.05 87 1009.3
20260508211550 54 0 0.0 1.0 0.02 0.02 0.02 86 1009.4
20260508210054 55 0 0.0 3.0 0.01 0.01 0.01 85 1009.3
20260508204552 56 0 0.0 3.0 0.00 0.00 0.00 84 1009.5
20260508203115 58 0 0.0 3.0 0.00 0.00 0.00 80 1009.6
20260508201552 60 284 0.0 3.0 0.00 0.00 0.00 76 1009.6
20260508200053 61 0 0.0 1.0 0.00 0.00 0.00 75 1009.5
20260508194556 61 0 0.0 1.0 0.00 0.00 0.00 74 1009.5
20260508193132 62 0 0.0 4.0 0.00 0.00 0.00 70 1009.6
20260508191555 62 190 2.0 6.0 0.00 0.00 0.00 68 1009.8
20260508190053 61 221 2.0 6.0 0.00 0.00 0.00 67 1009.7
20260508184603 62 238 4.0 8.0 0.00 0.00 0.00 67 1010.1
20260508183059 61 159 3.0 8.0 0.00 0.00 0.00 66 1010.3
20260508181603 61 202 3.0 9.0 0.00 0.00 0.00 65 1010.4
20260508180119 61 210 3.0 8.0 0.00 0.00 0.00 66 1010.4
20260508174615 61 206 5.0 11.0 0.00 0.00 0.00 65 1010.6
20260508173054 62 234 6.0 10.0 0.00 0.00 0.00 62 1010.8
20260508171554 65 190 6.0 11.0 0.00 0.00 0.00 60 1010.7
20260508170109 65 196 7.0 12.0 0.00 0.00 0.00 61 1010.8
20260508164604 63 213 4.0 10.0 0.00 0.00 0.00 62 1011.2
20260508163056 64 204 5.0 9.0 0.00 0.00 0.00 63 1011.5
20260508161556 61 195 4.0 8.0 0.00 0.00 0.00 67 1011.8
20260508154601 60 227 4.0 9.0 0.00 0.00 0.00 65 1012.0
20260508153125 60 207 4.0 8.0 0.00 0.00 0.00 65 1012.0
20260508151559 60 202 5.0 8.0 0.00 0.00 0.00 66 1012.0
20260508150053 60 206 4.0 8.0 0.00 0.00 0.00 65 1012.0
20260508144557 60 251 4.0 8.0 0.00 0.00 0.00 66 1012.0
20260508143107 59 225 4.0 9.0 0.00 0.00 0.00 67 1012.2
20260508141555 59 205 4.0 10.0 0.00 0.00 0.00 65 1012.3
20260508140105 58 197 3.0 7.0 0.00 0.00 0.00 69 1012.5
20260508134555 56 218 3.0 6.0 0.00 0.00 0.00 69 1012.7
20260508133056 55 179 3.0 7.0 0.00 0.00 0.00 69 1012.8
20260508131552 55 227 2.0 5.0 0.00 0.00 0.00 70 1012.9
20260508130053 54 209 2.0 5.0 0.00 0.00 0.00 68 1012.8
20260508124554 53 215 1.0 3.0 0.00 0.00 0.00 71 1012.8
20260508123051 52 0 0.0 4.0 0.00 0.00 0.00 72 1013.0
20260508121612 51 0 0.0 8.0 0.00 0.00 0.00 72 1013.1
20260508120059 49 0 0.0 0.0 0.00 0.00 0.00 76 1012.8
20260508114607 48 0 0.0 0.0 0.00 0.00 0.00 76 1013.0
20260508113111 47 206 1.0 2.0 0.00 0.00 0.00 76 1012.8
20260508111617 47 0 0.0 0.0 0.00 0.00 0.00 75 1012.8
20260508110100 47 0 0.0 3.0 0.00 0.00 0.00 75 1012.8
20260508104559 47 215 3.0 5.0 0.00 0.00 0.00 74 1012.5
20260508103054 48 0 0.0 5.0 0.00 0.00 0.00 74 1012.8
20260508101554 48 325 1.0 4.0 0.00 0.00 0.00 73 1012.6
20260508100054 48 224 3.0 5.0 0.00 0.00 0.00 72 1012.1
20260508094600 49 189 3.0 6.0 0.00 0.00 0.00 71 1012.1
20260508093059 49 211 3.0 6.0 0.00 0.00 0.00 70 1012.1
20260508091608 49 223 2.0 4.0 0.00 0.00 0.00 70 1012.2
20260508090100 49 210 3.0 5.0 0.00 0.00 0.00 70 1012.3
20260508084557 50 215 2.0 5.0 0.00 0.00 0.00 69 1012.4
20260508083106 50 211 3.0 6.0 0.00 0.00 0.00 68 1012.3
20260508081604 50 192 3.0 5.0 0.00 0.00 0.00 70 1012.6
20260508080101 51 187 3.0 6.0 0.00 0.00 0.00 69 1012.8